CZ-4B R/B (29093 NORAD) Tracking and Keplerian Element Data

This shows tracking and keplerian element data for the satellite.

Feedback or suggestion? Click here.




ElementValue
Catalog29093
NameCZ-4B R/B
Epoch Orbit94393
Epoch Day85.18609466
Epoch Year2023
RAAN334.3048
Inclination97.5376
Eccentricity0.0007597
Argument of Perigee231.7296
Mean Anonmoly128.804
Mean Motion16.37006237
Decay Rate0.05235342
L11 29093U 06015B 23085.18609466 .05235342 26459-5 59252-3 0 9994
L22 29093 97.5376 334.3048 0007597 231.7296 128.8040 16.37006237943931



Live tracking and technical data element details for CZ-4B R/B (NORAD 29093). CZ-4B R/B can be tracked NOW for your location showing map with azimuth and elevation plus other details from your city location.







IsCatalogInMostPopularTable: catalog: 29093, numindb: 5
Update: records affected: 1



GetName: 29093 CZ-4B R/B

Hit Count: updated at: Fri, 19 Apr 2024 11:30:11 GMT